CZ-4B DEB, 43430

Orbit data source: Space-Track

CZ-4B DEB, 43430 is space debris in LEO originally from a launch on Thu, 15 Jun 2017 UTC launched from the Jiuquan Satellite Launch Center, China (JSC). Debris objects in space refer to the collection of defunct objects orbiting the Earth. Examples of debris include non-operational satellites, rocket bodies, and fragments generated from explosions, collisions, or faulty payload assembly.

Loading next visibility...
Identifier
43430, 2017-034F
Orbit
LEO
Last TLE update
2 days ago
Origin
Manufacturer
SAST
Mission
Spacecraft
Bus & Motor
Unknown
Mass
Unknown
Launch date (UTC)
2017-06-15 (8 years ago)
Launch vehicle
Unknown
Launch site
Jiuquan Satellite Launch Center, China (JSC)
Object type
Payload
Rocket body
Debris
Shape & HBR
Unknown
Radar Cross Section
Small (<0.1 m²)

Expand to show TLE details & history

TLE from 2 days ago
0 CZ-4B DEB
1 43430U 17034F   25182.05344295  .00004937  00000-0  46196-3 0  9991
2 43430  42.9941 172.6443 0139382 203.8569 155.5764 14.87925996423935
Epoch: 2025-07-01T01:16Z
TLE epoch observation values (Epoch: 2025-07-01T01:16:57.47Z)
Latitude
-0.00004°
Longitude
-125.94961°
Altitude
693.025 km
Speed
7.464 km/s
True Right ascension
11h 30m 34s
True Declination
0° 00' 00"
Sunlit
Object was in daylight at epoch
Visualization orbit readout
Latitude
40.46836°
Longitude
-22.64158°
Altitude
636.157 km
Speed
7.53 km/s
Apparent Right ascension
22h 31m 33s
Apparent Declination
6° 49' 20"
Sunlit
Object is in full shadow
Visualization observer readout
Local Sidereal Time
15:28:34
Azimuth
74.558° E
Elevation
-7.494°
Doppler factor
1
Orbital elements
Apogee altitude
703.681 km
Perigee altitude
508.979 km
Semi-major axis
6,984.467 km
Eccentricity
0.01394
Inclination
42.9941°
RAAN
172.6443°
Arg. of periapsis
203.8569°
True anomaly
Unknown
Mean anomaly
155.5764°
Eccentric anomaly
Unknown
Mean motion
3.71829 °/min
Orbital period
96.82 mins
BSTAR
0.00046196
Loading maneuver chart data...
Loading SW <> Apogee altitude chart data...
Loading historical data...
Loading historical data...
Loading historical data...
Loading historical data...
Loading historical data...
Loading historical data...
Loading historical data...

CZ-4B DEB Visibility forecast

Observer location: undefined°, undefined°

Span
Click to sort rows by Start time (UTC) header in descending order
Start Az.
Max El. time (UTC)
Max El. Az.
Max El.
End time (UTC)
End Az.
9 mins2025-07-03 05:11:21.134Z282.956° WNW2025-07-03 05:16:21.134Z30.284° NE39.867°2025-07-03 05:20:21.134Z82.933° E
7 mins2025-07-03 06:54:21.134Z286.321° WNW2025-07-03 06:57:21.134Z262.698° W43.105°2025-07-03 07:01:21.134Z115.795° SE
5 mins2025-07-03 08:37:21.134Z249.102° W2025-07-03 08:39:21.134Z212.554° SW20.287°2025-07-03 08:42:21.134Z167.977° S
4 mins2025-07-04 00:21:21.134Z157.153° SSE2025-07-04 00:22:21.134Z143.43° SSE15.502°2025-07-04 00:25:21.134Z104.812° ESE
8 mins2025-07-04 02:00:21.134Z227.976° WSW2025-07-04 02:04:21.134Z127.093° SE39.647°2025-07-04 02:08:21.134Z76.103° E
|